Regional Weather Roundup
Issued by NWS

Home | Current Version | Previous Version | Text Only | Print | Product List | Glossary Off
Versions: 1 2 3 4 5 6 7 8 9 10 11 12 13 14 15 16 17 18 19 20 21 22 23 24 25 26 27 28 29 30 31 32 33 34 35 36 37 38 39 40 41 42 43 44 45 46 47 48 49 50

000
ASUS43 KMPX 221601
RWRMN
WEATHER ROUNDUP FOR MINNESOTA
NATIONAL WEATHER SERVICE TWIN CITIES/CHANHASSEN MN
1100 AM CDT TUE AUG 22 2017


NOTE: "FAIR" INDICATES FEW OR NO CLOUDS BELOW 12,000 FEET WITH NO
SIGNIFICANT WEATHER AND/OR OBSTRUCTIONS TO VISIBILITY. N/A MEANS
CURRENT SKY AND/OR WEATHER CONDITIONS ARE NOT AVAILABLE.

MNZ060>063-068>070-221700-
   Twin Cities Metro

CITY           SKY/WX    TMP DP  RH WIND       PRES   REMARKS
TWIN CITIES    SUNNY     68  50  52 NW14      30.05R
ST PAUL        SUNNY     68  51  54 NW18      30.04R
CRYSTAL        SUNNY     68  49  50 NW16      30.03R
BLAINE         SUNNY     70  52  52 W14G20    30.04R
LAKEVILLE      SUNNY     66  54  63 NW8G16    30.06R
EDEN PRAIRIE   SUNNY     68  51  54 NW14      30.05R
SOUTH ST PAUL  SUNNY     68  50  52 NW14      30.04R
LAKE ELMO      FAIR      68  54  60 NW14      30.05R
$$
MNZ001>005-007-008-013>017-022>024-027-028-221700-
   Northwest Minnesota

CITY           SKY/WX    TMP DP  RH WIND       PRES   REMARKS
BEMIDJI        SUNNY     64  50  59 W17       30.02S
HALLOCK        SUNNY     68  48  49 NW14G20   30.02S
ROSEAU         SUNNY     64  55  72 W13G20    29.98S
WARROAD        MOSUNNY   64  54  68 W17G23    29.97S
CROOKSTON      SUNNY     68  46  45 NW17G23   30.05S
FOSSTON        MOSUNNY   63  52  67 W12       30.05S
DETROIT LAKES  SUNNY     63  50  63 W10       30.09R
MOORHEAD       SUNNY     66  50  55 W12       30.09S
PARK RAPIDS    SUNNY     66  50  56 NW16      30.05R
MAHNOMEN       FAIR      64  51  63 NW12G22   30.06S
$$
MNZ006-009>011-018-025>026-221700-
   North Central Minnesota

CITY           SKY/WX    TMP DP  RH WIND       PRES   REMARKS
BAUDETTE       PTSUNNY   64  54  69 NW17G25   29.95S
FLAG ISLAND    PTSUNNY   63  54  72 NW12      29.93R
INTL FALLS     CLOUDY    62  54  74 NW9G20    29.91S
WASKISH        PTSUNNY   64  54  68 W12G18    29.98R
BIG FORK       MOSUNNY   63  52  67 W8        29.96S
LONGVILLE      SUNNY     64  52  63 NW7       30.01S
GRAND RAPIDS   MOSUNNY   64  50  60 NW17G26   30.00R
CRANE LAKE     CLOUDY    59  54  82 NW3       29.91F
ORR            PTSUNNY   61  52  72 NW8       29.90S
COOK           MOSUNNY   63  52  67 W12       29.93S
WALKER         FAIR      64  49  60 W10G17    30.02S
$$
MNZ012-019>021-037-221700-
   Northeast Minnesota

CITY           SKY/WX    TMP DP  RH WIND       PRES   REMARKS
DULUTH         MOSUNNY   64  54  69 W15G22    29.93S
ELY            PTSUNNY   61  48  63 W10G20    29.89S
HIBBING        MOSUNNY   62  51  67 NW15G26   29.95R
EVELETH        MOSUNNY   63  49  61 W13G22    29.94S
DULUTH HARBOR  SUNNY     66  55  68 W14G21    29.93S
SILVER BAY     SUNNY     66  52  59 NW7       29.87S
GRAND MARAIS     N/A     68  51  54 VRB7      29.82S
$$
MNZ029>031-032-039>041-046>048-054>057-064-221700-
   West Central Minnesota

CITY           SKY/WX    TMP DP  RH WIND       PRES   REMARKS
FERGUS FALLS   SUNNY     63  52  67 N8        30.10S
WHEATON        SUNNY     66  48  52 W14       30.14S
MORRIS         SUNNY     66  52  59 NW16      30.11R
ALEXANDRIA     SUNNY     65  51  60 W15       30.11R
ELBOW LAKE     FAIR      63  53  69 NW10G16   30.12R
WADENA         SUNNY     64  50  59 NW10G17   30.07R
GLENWOOD       SUNNY     64  54  68 W14       30.10S
APPLETON       SUNNY     68  50  52 NW10      30.12R
BENSON         SUNNY     68  52  56 NW14      30.13S
ORTONVILLE     SUNNY     70  48  46 MISG      30.13R
MADISON        SUNNY     70  54  56 NW12      30.13S
WILLMAR        FAIR      66  55  68 W9        30.12R
$$
MNZ033>034-036-042>043-049>051-058-059-221700-
   Central Minnesota

CITY           SKY/WX    TMP DP  RH WIND       PRES   REMARKS
ST CLOUD       SUNNY     69  53  56 W14G21    30.05S
SAUK CENTRE    FAIR      67  51  58 W10       30.08S
PAYNESVILLE    SUNNY     66  56  68 W13       30.09S
AITKIN         SUNNY     64  52  63 W9        30.00R
PINE RIVER     SUNNY     63  48  59 NW10G18   30.05S
BRAINERD       SUNNY     65  50  58 NW15G23   30.03R
STAPLES        SUNNY     66  48  52 NW14      30.05R
LONG PRAIRIE   FAIR      64  52  63 SW12      30.07S
LITTLE FALLS   SUNNY     66  46  48 W14G20    30.05R
LITCHFIELD     SUNNY     68  54  60 NW10G16   30.09S
BUFFALO        SUNNY     67  51  56 NW10      30.07S
MAPLE LAKE     SUNNY     68  55  62 NW8       30.07S
HUTCHINSON     SUNNY     67  56  68 W7        30.10S
$$
MNZ037-044-045-052-053-221700-
   East Central Minnesota

CITY           SKY/WX    TMP DP  RH WIND       PRES   REMARKS
PRINCETON      SUNNY     70  54  56 W9G16     30.04S
MORA           SUNNY     66  50  55 W10G16    30.03S
CAMBRIDGE      SUNNY     70  54  56 W12G17    30.03S
RUSH CITY      SUNNY     67  54  61 W7        30.02S
MOOSE LAKE     MOSUNNY   66  52  59 NW8       29.96S
HINCKLEY       FAIR      68  52  56 W8        30.00R
CLOQUET        SUNNY     64  52  63 W15G22    29.95S
MCGREGOR       SUNNY     64  52  63 W13G18    30.00R
$$
MNZ071>073-080-081-089-090-097-098-221700-
   Southwest Minnesota

CITY           SKY/WX    TMP DP  RH WIND       PRES   REMARKS
MONTEVIDEO     SUNNY     70  66  88 NW12      30.13R
GRANITE FALLS  SUNNY     68  55  63 W10       30.14S
CANBY          SUNNY     70  49  46 CALM      30.15S
MARSHALL       SUNNY     67  52  58 NW10      30.15R
REDWOOD FALLS  SUNNY     67  53  61 W12       30.12R
OLIVIA         SUNNY     68  55  64 W14       30.11R
PIPESTONE      SUNNY     66  50  55 N14       30.18R
WINDOM         SUNNY     66  52  59 NW10G16   30.15R
WORTHINGTON    SUNNY     66  49  54 NW13      30.17R
JACKSON        SUNNY     64  50  59 NW6G16    30.15R
TRACY          SUNNY     67  56  67 NW9       30.15R
SLAYTON        SUNNY     65  47  53 NW12      30.17R
$$
MNZ065>067-074>077-082>085-091>093-221700-
   South Central Minnesota

CITY           SKY/WX    TMP DP  RH WIND       PRES   REMARKS
MANKATO        SUNNY     65  54  67 NW15      30.09S
NEW ULM        SUNNY     64  52  63 NW12      30.11R
ST JAMES       SUNNY     66  54  63 NW10      30.13R
FAIRMONT       SUNNY     66  53  63 NW12G18   30.13R
GLENCOE        SUNNY     67  58  72 W9        30.08S
FARIBAULT      SUNNY     66  54  63 NW12G20   30.07S
OWATONNA       SUNNY     66  55  68 NW15      30.07S
WASECA         SUNNY     64  52  63 NW12G17   30.09S
ALBERT LEA     SUNNY     66  57  72 NW8       30.08S
$$
MNZ078>079-086>088-094>096-221700-
   Southeast Minnesota

CITY           SKY/WX    TMP DP  RH WIND       PRES   REMARKS
ROCHESTER      SUNNY     65  54  67 NW16      30.06R
RED WING       MOSUNNY   68  48  49 N10G17    30.02S
STANTON        SUNNY     67  54  62 NW10      30.05R
DODGE CENTER   MOSUNNY   64  54  68 NW10G18   30.07R
WINONA         SUNNY     70  54  56 N13G23    30.01R
AUSTIN         SUNNY     66  54  63 N12G21    30.06S
PRESTON        SUNNY     64  51  62 N14G22    30.04R
$$
ABBREVIATIONS USED IN REMARKS
   TC - TEMPERATURES IN CELSIUS
  WCI - WIND CHILL INDEX
   HX - HEAT INDEX
  VSB - VISIBILITY
$$



USA.gov is the U.S. government's official web portal to all federal, state and local government web resources and services.